Tracking 31080 objects as of 20-Jul-2025
HD Live streaming from Space Station
objects crossing your sky now

CZ-6A DEB

Track CZ-6A DEB now!
10-day predictions


NORAD ID: 54952
Int'l Code: 2022-151SR
Perigee: 834.4 km
Apogee: 998.9 km
Inclination: 98.9 °
Period: 103.2 minutes
Semi major axis: 7287 km
RCS: Unknown
Launch date: November 11, 2022
Source: People's Republic of China (PRC)
Launch site: Taiyaun Space Center, China (TSC)

Note: This is SATELLITE DEBRIS
Your satellite tracking list
Your tracking list is empty




NASA's NSSDC Master Catalog

Two Line Element Set (TLE):
1 54952U 22151SR  25200.47186341 -.00000075  00000-0 -21941-4 0  9994
2 54952  98.9092 184.4323 0112876 267.7858  91.0376 13.95483395136395
Source of the keplerian elements: AFSPC